FW5912 Weather Reports


Display with metric or nautical units.
time (UTC)temp
F
wind
direction
speed
MPH
gust
MPH
rain 1hr
in
rain 24hr
in
rain mn
in
humidity
%
barometer
mb
20260510054554 76 135 12.0 18.0 0.00 0.01 0.00 91 1012.8
20260510053106 76 87 12.0 20.0 0.00 0.01 0.00 91 1012.8
20260510051604 76 71 12.0 20.0 0.00 0.01 0.00 90 1012.8
20260510050111 76 96 12.0 19.0 0.00 0.01 0.00 90 1013.1
20260510044604 76 73 12.0 19.0 0.00 0.01 0.01 91 1013.2
20260510043059 76 88 10.0 17.0 0.00 0.01 0.01 91 1013.2
20260510041601 76 89 9.0 15.0 0.00 0.01 0.01 91 1013.5
20260510040053 77 94 8.0 12.0 0.00 0.01 0.01 91 1013.3
20260510034557 76 66 5.0 12.0 0.00 0.01 0.01 90 1013.4
20260510033108 77 57 7.0 13.0 0.00 0.01 0.01 90 1013.2
20260510031555 77 64 4.0 13.0 0.00 0.01 0.01 90 1013.2
20260510030111 77 90 7.0 10.0 0.00 0.01 0.01 89 1013.1
20260510024556 77 42 6.0 12.0 0.00 0.01 0.01 88 1012.8
20260510023055 77 84 4.0 11.0 0.00 0.01 0.01 89 1012.5
20260510021555 77 66 5.0 12.0 0.00 0.01 0.01 88 1012.2
20260510020054 77 104 4.0 10.0 0.00 0.01 0.01 88 1012.0
20260510014601 77 89 4.0 12.0 0.00 0.01 0.01 88 1011.7
20260510013055 77 121 8.0 12.0 0.00 0.01 0.01 89 1011.0
20260510011555 77 107 7.0 12.0 0.00 0.01 0.01 90 1010.9
20260510010054 77 121 9.0 13.0 0.00 0.01 0.01 90 1010.9
20260510004553 78 194 8.0 15.0 0.00 0.01 0.01 90 1010.5
20260510003102 78 123 10.0 16.0 0.00 0.01 0.01 89 1010.6
20260510001556 78 124 12.0 19.0 0.00 0.01 0.01 89 1010.4
20260510000057 79 146 12.0 16.0 0.00 0.01 0.01 89 1010.2
20260509234600 79 156 10.0 17.0 0.00 0.01 0.01 88 1010.4
20260509233103 79 131 10.0 16.0 0.00 0.01 0.01 87 1010.4
20260509231555 80 128 6.0 11.0 0.00 0.01 0.01 87 1010.2
20260509230059 80 117 5.0 10.0 0.00 0.01 0.01 86 1010.2
20260509224553 81 126 4.0 8.0 0.00 0.01 0.01 86 1010.1
20260509223100 81 167 6.0 11.0 0.00 0.01 0.01 87 1010.0
20260509221556 81 123 8.0 11.0 0.00 0.01 0.01 86 1009.9
20260509214556 81 107 5.0 9.0 0.00 0.02 0.01 85 1009.8
20260509213059 82 149 2.0 7.0 0.00 0.02 0.01 86 1009.9
20260509211553 81 76 3.0 8.0 0.00 0.02 0.01 87 1009.9
20260509210055 80 71 3.0 8.0 0.00 0.02 0.01 87 1009.9
20260509204556 80 71 6.0 8.0 0.00 0.02 0.01 87 1009.8
20260509203106 80 62 4.0 8.0 0.00 0.02 0.01 86 1009.9
20260509201601 81 131 4.0 9.0 0.00 0.02 0.01 86 1010.0
20260509200108 81 121 7.0 9.0 0.00 0.02 0.01 85 1010.1
20260509194554 82 121 3.0 4.0 0.00 0.02 0.01 82 1010.6
20260509193114 81 111 2.0 6.0 0.00 0.02 0.01 82 1010.8
20260509191553 82 350 2.0 6.0 0.00 0.02 0.01 79 1010.9
20260509190059 81 331 5.0 10.0 0.00 0.02 0.01 80 1010.9
20260509184607 81 18 4.0 9.0 0.00 0.02 0.01 78 1010.9
20260509183057 81 335 3.0 6.0 0.00 0.02 0.01 78 1011.0
20260509181603 79 301 4.0 8.0 0.00 0.02 0.01 84 1011.1
20260509180055 79 90 0.0 5.0 0.00 0.02 0.01 88 1011.1
20260509174602 78 95 4.0 7.0 0.00 0.02 0.01 89 1011.5
20260509173106 78 97 2.0 3.0 0.00 0.02 0.01 90 1012.0
20260509171615 78 238 2.0 5.0 0.00 0.02 0.01 91 1011.9
20260509170057 78 0 0.0 3.0 0.00 0.02 0.01 92 1011.7
20260509164553 77 304 0.0 3.0 0.00 0.02 0.01 92 1011.7
20260509163107 77 0 0.0 3.0 0.00 0.02 0.01 92 1012.0
20260509161554 77 194 3.0 5.0 0.00 0.02 0.01 92 1011.9
20260509160054 77 146 0.0 3.0 0.00 0.02 0.01 93 1012.0
20260509154554 76 197 2.0 4.0 0.00 0.02 0.01 94 1012.1
20260509153052 76 0 1.0 10.0 0.00 0.02 0.01 94 1011.8
20260509151603 76 88 2.0 4.0 0.00 0.02 0.01 94 1011.6
20260509150104 76 117 1.0 3.0 0.00 0.02 0.01 94 1011.6
20260509144659 76 158 0.0 2.0 0.00 0.02 0.01 94 1012.1
20260509143054 76 211 0.0 4.0 0.00 0.02 0.01 94 1012.3
20260509141552 76 189 1.0 2.0 0.00 0.02 0.01 94 1011.8
20260509140059 76 130 3.0 4.0 0.00 0.02 0.01 93 1011.6
20260509134553 76 150 4.0 7.0 0.00 0.02 0.01 94 1011.9
20260509133054 76 213 1.0 3.0 0.00 0.02 0.01 94 1011.7
20260509131553 76 335 2.0 3.0 0.00 0.02 0.01 94 1011.8
20260509130105 76 0 0.0 0.0 0.00 0.02 0.01 94 1011.4
20260509124610 75 0 0.0 1.0 0.00 0.02 0.01 94 1011.4
20260509123102 75 59 0.0 3.0 0.00 0.02 0.01 94 1011.7
20260509121559 74 38 0.0 7.0 0.00 0.02 0.01 94 1011.7
20260509120106 74 351 1.0 2.0 0.00 0.02 0.01 94 1011.9
20260509114603 74 313 0.0 2.0 0.01 0.02 0.01 94 1011.3
20260509113056 75 328 1.0 2.0 0.01 0.02 0.01 94 1011.3
20260509111553 75 0 0.0 0.0 0.01 0.02 0.01 94 1011.0
20260509110053 75 0 0.0 2.0 0.01 0.02 0.01 94 1010.9
20260509104553 75 0 0.0 0.0 0.00 0.01 0.00 94 1010.8
20260509103054 75 0 0.0 2.0 0.00 0.01 0.00 94 1010.8
20260509101557 75 111 1.0 3.0 0.00 0.01 0.00 94 1010.7
20260509100058 75 109 2.0 6.0 0.00 0.01 0.00 94 1010.6
20260509094554 75 120 4.0 7.0 0.00 0.01 0.00 94 1010.4
20260509093055 75 109 6.0 9.0 0.00 0.01 0.00 94 1010.4
20260509091552 75 107 4.0 7.0 0.00 0.01 0.00 94 1010.1
20260509090104 75 122 2.0 6.0 0.00 0.01 0.00 94 1010.3
20260509084601 75 143 4.0 8.0 0.00 0.01 0.00 94 1010.3
20260509083055 75 120 3.0 6.0 0.00 0.01 0.00 94 1010.8
20260509081555 75 131 2.0 4.0 0.00 0.01 0.00 93 1010.8
20260509080059 75 123 2.0 6.0 0.00 0.01 0.00 93 1010.8
20260509074601 75 123 5.0 10.0 0.00 0.01 0.00 93 1010.7
20260509073100 76 123 5.0 10.0 0.00 0.01 0.00 93 1010.7
20260509071613 76 119 7.0 10.0 0.00 0.01 0.00 93 1010.8
20260509070101 76 117 4.0 9.0 0.00 0.01 0.00 93 1010.9
20260509064607 76 121 8.0 10.0 0.00 0.01 0.00 93 1011.0
20260509063106 76 121 9.0 12.0 0.00 0.01 0.00 93 1011.0
20260509061602 76 134 8.0 11.0 0.00 0.01 0.00 93 1011.0
20260509060107 76 137 10.0 14.0 0.00 0.01 0.00 93 1011.0